This is the latest recevied weather packets stored in our database for station/object DH9NFM-12. If no packets are shown the sender has not sent any weather packets the latest 10 day(s).
| Time | Temp. | Humidity | Pressure | Rain* | Wind** | Luminosity | Snow |
|---|---|---|---|---|---|---|---|
| 1777805148 | 22.78° C | 43% | 1014 hPa | 0 mm | - | - | - |
| 1777804523 | 22.22° C | 44% | 1014.1 hPa | 0 mm | - | - | - |
| 1777803899 | 21.67° C | 45% | 1014.2 hPa | 0 mm | - | - | - |
| 1777803274 | 22.22° C | 43% | 1014.3 hPa | 0 mm | - | - | - |
| 1777802649 | 21.11° C | 42% | 1014.4 hPa | 0 mm | - | - | - |
| 1777802025 | 21.11° C | 42% | 1014.5 hPa | 0 mm | - | - | - |
| 1777801400 | 21.11° C | 45% | 1014.5 hPa | 0 mm | - | - | - |
| 1777800775 | 20.56° C | 45% | 1014.5 hPa | 0 mm | - | - | - |
| 1777800151 | 19.44° C | 49% | 1014.6 hPa | 0 mm | - | - | - |
| 1777799526 | 19.44° C | 46% | 1014.6 hPa | 0 mm | - | - | - |
| 1777798902 | 18.89° C | 46% | 1014.5 hPa | 0 mm | - | - | - |
| 1777798277 | 19.44° C | 46% | 1014.6 hPa | 0 mm | - | - | - |
| 1777797652 | 18.89° C | 45% | 1014.5 hPa | 0 mm | - | - | - |
| 1777797028 | 18.89° C | 44% | 1014.5 hPa | 0 mm | - | - | - |
| 1777796403 | 18.89° C | 46% | 1014.6 hPa | 0 mm | - | - | - |
| 1777795778 | 18.33° C | 45% | 1014.7 hPa | 0 mm | - | - | - |
| 1777795154 | 17.78° C | 46% | 1014.6 hPa | 0 mm | - | - | - |
| 1777794529 | 17.22° C | 46% | 1014.7 hPa | 0 mm | - | - | - |
| 1777793904 | 16.67° C | 48% | 1014.8 hPa | 0 mm | - | - | - |
| 1777793280 | 16.67° C | 47% | 1014.8 hPa | 0 mm | - | - | - |
| 1777792655 | 16.67° C | 48% | 1014.8 hPa | 0 mm | - | - | - |
| 1777792030 | 16.11° C | 48% | 1014.8 hPa | 0 mm | - | - | - |
| 1777791406 | 16.11° C | 48% | 1014.8 hPa | 0 mm | - | - | - |
| 1777790781 | 16.11° C | 47% | 1014.8 hPa | 0 mm | - | - | - |
| 1777790156 | 15.56° C | 47% | 1014.7 hPa | 0 mm | - | - | - |
* Rain latest hour (hover to see other rain measurements)
** Current wind speed in m/s (hover to see current wind gust speed)